CAPE
5 7 11 11 20 38 35 36 32 84 92 110 82 42 52 95 90 84 52 35 14 4 4 1 0 26 5 0 5 9 3 3 0 4 0 0 0 0 0 0 0 0 4
21 22 13 24 58 89 99 119 99 89 53 69 101 84 111 50 75 36 22 9 5 11 19 8 1 20 8 6 0 0 4 0 0 0 1 0 0 0 0 0 0 0 4
26 12 3 0 0 7 43 71 46 9 28 51 47 63 34 27 21 6 8 13 11 12 19 25 11 17 5 7 0 0 4 3 0 0 1 0 0 0 0 0 1 0 0
17 15 3 7 13 20 35 64 74 74 81 38 35 43 35 27 1 0 0 0 0 4 16 13 9 17 3 0 0 0 2 0 1 0 0 1 0 0 0 0 0 0 0
11 20 12 4 0 10 33 28 8 18 14 15 4 2 8 0 0 0 0 0 0 0 15 2 6 4 0 0 0 0 0 0 0 0 0 2 1 1 0 0 0 0 0
19 18 17 12 21 53 0 0 10 9 26 13 4 0 13 0 0 0 0 0 0 8 7 6 0 17 14 8 11 3 0 0 0 2 0 2 1 1 1 0 1 1 0
31 16 21 16 1 2 2 11 5 0 4 2 2 3 0 2 0 0 0 0 0 0 9 3 0 0 2 0 2 11 0 0 1 0 2 1 1 1 0 0 0 0 0
18 10 17 10 6 1 4 2 2 0 1 0 0 1 0 3 0 0 0 1 6 9 0 0 1 1 0 0 1 0 1 0 1 1 0 0 0 0 0 0 0 0 0
10 4 3 8 8 5 0 0 0 1 1 0 0 0 1 3 0 0 0 8 1 0 2 2 1 0 0 0 0 1 1 1 0 0 0 0 0 0 1 0 0 0 0
11 1 3 2 0 0 0 2 0 0 0 0 0 2 8 2 0 0 0 1 0 0 1 1 1 0 0 0 0 1 0 0 0 1 0 0 0 0 0 0 0 0 0
12 1 0 8 6 6 0 1 0 0 1 0 0 3 0 0 1 0 0 1 0 1 1 1 0 0 0 0 0 0 0 0 0 0 0 0 0 0 0 0 0 0 1
0 1 3 9 3 0 0 0 0 3 9 0 0 1 2 1 0 0 0 0 0 0 0 0 0 0 0 0 0 0 0 0 0 0 0 0 0 0 0 0 0 0 0
0 2 11 0 5 7 2 4 0 0 0 1 0 1 1 1 0 0 0 0 0 0 0 0 0 0 0 0 0 0 0 0 0 0 0 0 0 0 0 0 0 0 0
3 0 2 2 13 1 10 0 0 0 0 0 0 0 1 1 0 0 1 1 0 0 0 0 0 0 0 0 0 0 0 0 0 0 0 0 0 0 0 0 0 0 0
0 2 8 0 0 0 0 0 1 1 0 0 0 1 1 0 0 0 0 0 0 0 0 0 0 0 0 0 0 0 0 0 0 0 0 0 0 0 0 9 0 1 3
2 7 3 6 5 0 0 0 0 0 0 0 0 0 0 0 0 0 0 0 0 0 0 0 0 0 0 0 0 0 0 0 0 0 0 1 5 6 14 10 16 10 4
4 9 1 5 6 0 0 0 0 0 0 0 0 0 0 0 0 0 0 0 0 0 15 11 8 13 11 13 17 20 20 24 35 35 8 16 27 19 1 1 7 5 7
0 0 4 0 0 0 0 0 0 0 0 1 0 0 0 0 0 0 0 0 7 10 9 11 23 29 9 57 60 44 37 35 36 32 37 35 26 51 11 6 7 21 8
0 0 0 0 0 0 0 0 5 7 5 6 3 0 0 0 0 2 0 9 11 15 4 29 35 37 43 39 30 52 37 33 28 35 61 34 27 41 12 5 6 15 12
0 0 1 0 1 1 2 16 24 18 20 10 1 1 7 4 7 19 15 32 33 20 48 27 25 25 0 0 24 55 31 8 5 13 3 3 15 29 12 9 39 17 13
0 0 0 0 0 1 19 31 14 14 9 9 8 1 1 19 16 24 16 13 1 0 0 0 0 0 0 0 0 0 0 0 0 0 0 0 0 3 3 2 0 0 0
0 0 0 0 2 7 12 12 10 8 7 8 7 5 6 7 3 2 0 0 0 0 0 0 0 0 0 0 0 0 0 0 0 0 0 0 0 0 0 0 0 0 0
0 0 0 1 7 6 8 13 7 12 2 0 0 0 0 0 0 0 0 0 0 0 0 0 0 0 0 0 0 0 0 0 0 0 0 0 0 0 0 0 0 0 0
3 0 0 0 0 8 8 7 0 0 0 0 0 0 0 0 0 0 0 0 0 0 0 0 0 0 0 0 0 0 0 0 0 0 0 0 0 0 0 0 0 0 0
0 0 0 0 1 10 8 0 0 0 0 0 0 0 0 0 0 0 0 0 0 0 0 0 0 0 0 0 0 0 0 0 0 0 0 0 0 0 0 0 0 0 0
0 0 0 0 1 1 0 0 0 0 0 0 0 0 0 0 0 0 0 0 0 0 0 0 0 0 0 0 0 0 0 0 0 0 0 0 0 0 0 0 0 0 0
CIN
-17 -22 -21 -10 -13 -4 -6 -7 -22 -11 -11 -11 -11 -15 -10 -2 -8 -8 -8 -6 -16 -5 -7 -7 -0 -4 -8 -0 -36 -11 -35 -6 -3 -0 -0 -0 -0 -0 -0 -0 -0 -0 -0
-6 -3 -4 -10 -6 -3 -14 -10 -10 -4 -5 -1 -6 -7 -4 -5 -3 -11 -7 -4 -6 -10 -10 -7 -4 -4 -19 -21 -0 -0 -15 -0 -4 -1 -0 -0 -0 -0 -0 -0 -0 -0 -0
-6 -14 -6 -0 -0 -6 -10 -7 -13 -9 -11 -11 -13 -6 -6 -4 -3 -8 -6 -6 -6 -8 -6 -6 -7 -11 -16 -8 -1 -0 -6 -5 -0 -0 -0 -0 -0 -0 -0 -0 -0 -0 -0
-8 -14 -4 -2 -7 -3 -7 -8 -11 -8 -10 -8 -9 -7 -9 -8 -5 -8 -0 -0 -0 -2 -6 -4 -9 -4 -5 -0 -0 -2 -1 -0 -0 -0 -0 -1 -0 -0 -0 -0 -0 -0 -0
-23 -21 -27 -15 -0 -23 -10 -33 -18 -10 -7 -9 -14 -5 -15 -0 -0 -0 -0 -0 -0 -0 -2 -4 -14 -4 -0 -0 -4 -1 -5 -0 -0 -0 -0 -0 -0 -0 -0 -0 -0 -0 -0
-11 -4 -3 -10 -11 -7 -9 -0 -7 -3 -3 -5 -5 -2 -2 -0 -0 -0 -0 -0 -0 -4 -13 -8 -0 -2 -6 -3 -3 -10 -0 -0 -0 -2 -5 -0 -0 -0 -0 -0 -0 -0 -0
-14 -14 -8 -10 -11 -2 -4 -3 -6 -0 -5 -2 -2 -1 -2 -3 -0 -0 -0 -0 -0 -9 -3 -2 -0 -0 -4 -0 -11 -0 -0 -0 -0 -0 -0 -0 -0 -0 -0 -0 -0 -0 -0
-8 -5 -5 -1 -4 -13 -11 -15 -5 -2 -0 -1 -0 -1 -2 -3 -0 -0 -0 -4 -5 -1 -0 -0 -0 -0 -0 -0 -2 -0 -0 -0 -0 -0 -0 -0 -0 -0 -0 -0 -0 -0 -0
-2 -9 -8 -2 -2 -2 -4 -0 -1 -3 -2 -0 -0 -0 -7 -0 -0 -0 -0 -5 -1 -0 -0 -0 -0 -0 -0 -0 -0 -0 -0 -0 -0 -0 -0 -0 -0 -0 -0 -0 -0 -0 -0
-15 -4 -1 -1 -9 -0 -0 -1 -0 -0 -0 -0 -4 -2 -1 -0 -0 -0 -0 -2 -0 -0 -0 -0 -0 -0 -0 -0 -0 -0 -0 -0 -0 -0 -0 -0 -0 -0 -0 -0 -0 -0 -0
-1 -4 -0 -1 -0 -0 -0 -2 -2 -5 -6 -0 -4 -0 -0 -0 -0 -0 -0 -0 -0 -0 -0 -0 -0 -0 -0 -0 -0 -0 -0 -0 -0 -0 -0 -0 -0 -0 -0 -0 -0 -1 -4
-0 -0 -1 -1 -1 -0 -0 -0 -0 -2 -1 -0 -0 -0 -0 -0 -0 -0 -0 -0 -0 -0 -0 -0 -0 -0 -0 -0 -0 -0 -0 -0 -0 -0 -0 -0 -0 -0 -0 -0 -0 -0 -0
-0 -1 -1 -2 -3 -1 -0 -0 -2 -0 -0 -0 -0 -0 -0 -0 -0 -0 -0 -0 -0 -0 -0 -0 -3 -1 -0 -0 -0 -0 -0 -0 -0 -0 -0 -0 -0 -0 -0 -0 -0 -0 -0
-0 -0 -4 -3 -0 -2 -0 -0 -0 -0 -0 -0 -0 -0 -0 -0 -0 -0 -0 -1 -0 -1 -0 -6 -0 -0 -0 -0 -0 -0 -0 -0 -0 -0 -0 -0 -0 -0 -0 -0 -0 -0 -0
-0 -0 -0 -2 -0 -0 -0 -0 -0 -0 -0 -0 -0 -0 -0 -0 -0 -0 -0 -0 -0 -0 -0 -0 -0 -0 -0 -0 -0 -0 -0 -0 -0 -0 -0 -0 -0 -0 -0 -20 -2 -13 -27
-0 -0 -0 -2 -2 -0 -0 -0 -0 -0 -0 -0 -0 -0 -0 -0 -0 -0 -0 -0 -0 -47 -0 -0 -0 -0 -0 -0 -0 -0 -0 -0 -0 -0 -0 -16 -10 -7 -5 -5 -13 -6 -16
-11 -1 -6 -3 -0 -0 -0 -0 -0 -0 -0 -0 -0 -0 -0 -0 -0 -0 -0 -0 -0 -0 -18 -27 -35 -32 -24 -26 -26 -19 -17 -17 -12 -11 -16 -17 -11 -5 -17 -13 -22 -20 -20
-0 -0 -4 -0 -0 -0 -0 -0 -0 -0 -0 -0 -0 -0 -0 -0 -0 -0 -0 -0 -42 -34 -19 -14 -13 -7 -5 -5 -4 -2 -6 -9 -14 -18 -15 -18 -15 -4 -8 -10 -15 -10 -11
-0 -0 -0 -0 -0 -0 -0 -0 -64 -35 -14 -9 -7 -0 -0 -4 -0 -73 -44 -46 -16 -8 -39 -31 -24 -16 -17 -20 -13 -10 -16 -12 -20 -9 -6 -3 -3 -8 -30 -12 -23 -27 -18
-0 -0 -0 -0 -42 -20 -24 -14 -13 -30 -17 -14 -15 -6 -51 -60 -27 -18 -13 -15 -10 -10 -11 -3 -3 -4 -0 -0 -11 -5 -8 -18 -16 -7 -2 -2 -9 -11 -1 -7 -5 -9 -10
-0 -0 -0 -0 -0 -5 -12 -6 -9 -13 -15 -17 -19 -19 -50 -11 -7 -6 -6 -7 -9 -0 -0 -0 -0 -0 -0 -0 -0 -0 -0 -0 -0 -0 -0 -0 -0 -16 -14 -13 -0 -0 -0
-0 -0 -0 -0 -9 -27 -22 -18 -16 -13 -9 -8 -6 -15 -17 -3 -2 -2 -0 -0 -0 -0 -0 -0 -0 -0 -0 -0 -0 -0 -0 -0 -0 -0 -0 -0 -0 -0 -0 -0 -0 -0 -0
-0 -0 -0 -4 -5 -14 -10 -17 -12 -4 -1 -0 -0 -0 -0 -0 -0 -0 -0 -0 -0 -0 -0 -0 -0 -0 -0 -0 -0 -0 -0 -0 -0 -0 -0 -0 -0 -0 -0 -0 -0 -0 -0
-20 -2 -0 -0 -0 -3 -4 -4 -0 -0 -0 -0 -0 -0 -0 -0 -0 -0 -0 -0 -0 -0 -0 -0 -0 -0 -0 -0 -0 -0 -0 -0 -0 -0 -0 -0 -0 -0 -0 -0 -0 -0 -0
-0 -0 -0 -0 -3 -5 -0 -0 -0 -0 -0 -0 -0 -0 -0 -0 -0 -0 -0 -0 -0 -0 -0 -0 -0 -0 -0 -0 -0 -0 -0 -0 -0 -0 -0 -0 -0 -0 -0 -0 -0 -0 -0
-0 -0 -0 -0 -0 -1 -0 -0 -0 -0 -0 -0 -0 -0 -0 -0 -0 -0 -0 -0 -0 -0 -0 -0 -0 -0 -0 -0 -0 -0 -0 -0 -0 -0 -0 -0 -0 -0 -0 -0 -0 -0 -0
Wind_Speed
35 35 35 34 33 29 28 29 28 27 26 25 26 25 22 19 18 18 20 21 22 24 24 25 25 24 26 28 28 26 26 23 25 20 16 21 24 28 27 26 25 24 25
32 32 34 32 24 27 29 28 26 25 26 26 26 25 22 21 19 19 21 24 27 27 25 23 24 26 25 27 28 26 24 25 24 20 15 14 17 20 25 25 24 23 22
30 29 28 32 32 32 31 29 29 28 27 27 27 26 25 24 19 22 24 26 27 27 24 23 26 25 27 26 27 25 24 20 18 7 12 11 14 17 23 24 23 21 20
29 26 27 29 33 34 33 30 28 28 27 27 26 25 24 22 21 24 27 28 29 27 25 24 25 25 26 26 25 19 17 16 13 11 14 13 14 17 21 24 25 25 19
27 27 23 27 34 32 30 29 29 30 29 27 25 25 25 21 24 27 29 29 29 27 24 24 24 24 22 15 14 14 14 13 12 12 13 15 20 23 21 20 22 24 21
21 22 20 30 29 28 28 29 28 27 28 26 26 27 26 24 28 31 30 29 24 22 21 22 23 18 15 14 13 13 13 12 12 15 17 20 23 25 25 23 19 18 9
24 25 25 25 25 22 21 28 29 29 28 26 26 26 26 26 27 27 24 20 18 18 19 16 13 14 13 12 11 11 11 13 14 18 20 22 21 11 24 25 24 20 7
23 23 23 21 22 23 23 27 29 29 27 26 26 25 23 20 18 15 12 13 14 11 10 11 11 10 10 10 11 11 11 17 22 22 19 11 15 18 22 19 20 20 16
29 26 26 20 11 18 15 12 8 17 4 10 10 9 9 10 11 8 6 9 7 7 8 7 8 9 8 9 13 17 21 21 21 24 24 17 12 13 15 17 16 15 17
23 19 20 19 13 14 14 13 10 11 10 11 10 10 8 5 3 4 6 9 9 9 8 6 4 7 7 9 16 21 23 20 20 23 18 4 6 12 18 18 20 17 14
7 21 15 14 14 15 16 17 17 16 17 14 12 10 10 7 8 8 9 12 11 11 10 9 6 3 5 8 15 19 20 17 18 17 12 13 14 12 17 18 17 14 10
4 12 12 15 16 15 15 16 17 15 14 12 14 12 12 12 11 11 11 12 13 13 13 12 12 10 4 4 10 16 15 15 19 20 20 17 19 18 17 23 25 25 22
3 11 13 12 15 19 20 19 17 14 15 16 15 14 13 13 14 14 15 14 14 16 16 14 12 12 7 8 4 8 17 28 29 28 24 20 19 19 17 21 23 25 26
11 11 13 15 14 19 19 18 17 16 16 15 14 14 15 14 13 12 14 15 17 17 17 17 18 18 21 22 25 30 33 32 30 27 22 19 18 19 20 21 23 23 25
12 14 17 18 17 19 19 18 18 16 15 14 14 14 15 14 15 16 17 18 18 19 24 27 29 29 28 27 27 28 26 24 22 21 18 18 19 20 19 19 20 19 20
14 16 12 12 16 17 17 18 17 16 14 14 15 19 20 22 24 26 33 34 31 28 25 27 25 23 22 21 21 19 19 18 18 18 18 19 19 18 19 21 17 19 19
13 12 11 11 14 13 15 18 19 19 20 19 21 24 29 31 29 31 30 25 22 18 21 22 24 22 23 24 22 19 17 16 16 15 17 17 16 16 20 19 20 19 18
16 16 16 14 16 20 21 22 24 25 26 24 22 24 20 19 20 20 19 16 16 16 16 16 15 13 11 14 19 16 16 16 18 19 19 17 14 13 16 13 14 15 20
17 18 20 23 24 24 24 21 22 24 25 26 27 21 20 18 15 14 14 17 16 19 18 17 17 18 17 17 17 16 17 16 15 13 12 13 12 12 18 18 16 14 16
20 22 23 24 25 23 20 19 19 20 19 18 22 23 21 19 19 17 16 14 13 11 11 15 17 16 12 11 13 15 16 13 12 14 14 13 12 16 19 16 16 20 22
21 22 24 24 19 18 17 16 16 18 20 21 23 22 20 18 17 15 13 14 11 11 10 11 10 9 8 7 8 10 10 10 10 12 14 14 12 19 22 25 26 26 20
21 20 20 17 15 14 15 19 18 18 19 19 18 16 15 15 15 15 15 14 16 15 11 10 10 10 11 11 12 10 9 10 9 8 10 17 16 19 23 24 24 26 26
18 17 17 12 11 16 17 20 17 16 13 13 14 15 16 15 15 16 17 16 15 14 16 16 15 13 12 12 11 14 13 10 9 8 8 16 18 19 22 23 26 24 25
16 15 9 15 14 10 12 12 13 12 15 16 16 16 15 14 15 15 16 17 20 19 18 13 12 12 11 10 10 10 10 9 11 9 10 18 19 18 23 23 23 26 25
13 10 15 14 9 11 10 11 12 13 13 13 13 14 13 13 12 11 12 16 15 15 19 17 13 10 11 10 9 7 6 5 7 7 13 20 25 22 21 24 23 24 25
10 15 15 11 9 8 9 10 11 12 12 11 10 9 10 11 10 9 8 9 14 16 15 17 16 13 13 14 11 9 7 6 7 8 18 25 26 22 20 24 25 26 23
Wind_Direction
344 340 336 334 335 334 339 336 337 338 342 341 339 336 339 344 346 347 341 337 335 337 341 343 348 343 336 330 325 327 321 342 336 1 22 15 5 349 345 346 342 337 346
353 351 346 344 343 339 337 338 343 345 341 340 338 336 339 341 343 343 338 332 325 328 337 342 343 333 330 324 323 308 336 332 319 263 32 51 43 42 11 1 349 346 339
5 5 6 347 337 315 327 328 330 333 338 338 337 330 326 329 338 336 332 329 329 331 337 337 320 328 316 322 328 313 312 285 274 185 79 88 68 70 37 36 1 348 344
10 10 10 3 333 325 326 324 330 334 344 340 340 336 333 338 336 326 326 326 326 328 324 317 315 317 311 317 323 282 264 268 257 154 88 99 96 69 42 36 29 20 349
13 12 14 8 334 315 330 334 327 317 332 346 347 340 336 341 334 326 322 320 315 303 301 306 307 296 325 249 244 250 240 236 240 158 118 103 58 32 46 43 42 36 16
18 22 25 9 7 3 357 350 348 343 340 346 343 335 333 337 323 319 317 299 274 276 276 296 295 282 262 247 247 228 208 209 223 127 95 65 40 27 27 43 76 105 194
21 21 25 28 27 30 25 358 345 345 344 343 338 332 330 334 322 318 296 272 249 264 289 284 253 255 255 241 227 198 183 155 144 104 63 52 65 113 50 48 35 86 181
30 34 37 43 40 36 32 19 2 350 343 342 336 338 329 318 305 294 270 250 272 265 256 250 240 238 234 215 195 182 172 118 83 72 100 150 122 108 99 117 120 123 138
26 35 38 44 46 47 47 48 54 41 309 266 261 246 254 264 293 267 233 197 208 239 228 229 214 203 214 205 167 141 119 128 111 77 78 121 144 127 127 127 126 135 132
41 53 52 51 63 65 72 76 90 112 130 132 143 150 164 185 244 210 191 184 169 173 174 180 192 187 191 181 148 125 118 119 105 94 105 235 197 148 122 130 121 131 137
82 60 68 78 87 89 87 90 100 109 116 124 132 137 140 136 140 140 143 148 151 148 147 147 153 160 166 162 146 130 121 128 126 123 136 133 134 137 131 124 121 131 138
115 94 101 97 94 97 99 103 110 113 116 112 119 118 121 127 126 128 131 135 139 141 141 141 136 137 148 170 156 139 142 136 114 110 120 128 122 122 120 93 77 80 93
122 116 113 108 103 105 104 107 109 110 112 113 114 115 118 124 127 126 127 131 135 135 132 131 131 132 135 142 168 162 126 89 94 107 119 124 121 117 122 110 105 97 88
118 122 119 112 110 110 109 110 110 111 115 116 116 116 119 121 123 129 131 132 132 133 133 131 125 120 116 116 113 109 105 103 101 105 116 122 122 113 109 106 95 92 78
122 127 125 118 117 114 111 110 112 112 116 121 124 121 121 118 121 124 124 126 124 125 124 119 114 109 109 112 113 111 113 112 112 111 116 115 109 104 103 105 102 99 86
127 129 134 136 126 121 121 118 117 116 115 118 122 125 121 119 118 116 115 112 115 115 115 113 114 115 113 115 115 116 117 116 111 110 109 107 103 104 97 90 97 90 81
133 134 137 133 126 122 120 119 117 117 118 113 115 117 118 119 116 115 114 115 117 118 115 115 113 112 110 106 108 111 111 112 112 109 105 108 109 105 94 91 88 84 81
127 126 127 126 123 121 118 116 118 117 117 115 116 119 120 122 119 118 119 119 115 115 115 113 114 114 115 115 109 109 111 110 104 103 102 104 104 101 91 92 93 87 70
132 130 128 125 124 124 123 117 117 119 117 116 116 119 122 123 121 120 119 115 114 110 112 112 111 111 110 107 108 111 105 101 103 105 109 102 95 98 89 81 82 79 74
130 128 129 128 127 126 124 121 119 121 121 120 118 120 122 120 117 115 111 109 107 99 112 108 110 108 100 88 101 106 102 97 89 93 91 95 84 86 77 76 82 65 64
134 133 131 131 129 130 129 126 126 124 120 119 118 119 121 118 115 112 105 106 101 96 86 94 86 86 87 90 94 95 86 90 84 85 85 90 78 77 71 66 59 53 63
133 138 139 137 135 133 136 130 128 127 125 126 124 121 120 117 114 110 107 103 100 99 93 88 92 85 88 87 89 94 90 87 78 67 80 80 79 74 68 64 62 60 56
143 144 146 151 146 138 138 135 135 132 127 125 124 120 118 115 112 111 108 105 102 97 97 95 93 90 86 88 87 88 85 81 77 69 72 78 74 70 66 63 57 57 55
154 153 161 152 153 154 152 143 137 132 129 127 124 121 119 116 114 111 108 105 102 98 95 91 88 84 79 77 79 80 79 75 77 68 72 72 70 67 61 58 56 51 50
164 179 162 158 165 155 151 145 142 139 134 130 128 125 122 118 115 111 107 105 102 99 94 90 85 76 76 67 60 51 40 39 58 53 70 66 59 59 57 53 50 48 46
183 170 172 178 176 166 161 157 151 145 141 139 136 129 124 121 118 114 109 104 102 96 92 88 82 75 73 70 58 53 49 48 50 42 66 56 51 56 53 48 44 42 42